| time (UTC) | temp F | wind direction | speed knots | gust knots | rain 1hr in | rain 24hr in | rain mn in | humidity % | barometer mb |
| 20260504140425 | 62 | 219 | 0.0 | 0.0 | 0.00 | 0.00 | 0.00 | 50 | 1014.3 |
| 20260504130325 | 57 | 322 | 0.9 | 0.9 | 0.00 | 0.00 | 0.00 | 57 | 1015.0 |
| 20260504081525 | 53 | 263 | 0.0 | 0.0 | 0.00 | 0.00 | 0.00 | 69 | 1015.4 |
| 20260504045025 | 49 | 263 | 0.0 | 0.0 | 0.00 | 0.00 | 0.00 | 74 | 1015.5 |
| 20260504044025 | 48 | 263 | 0.0 | 0.0 | 0.00 | 0.00 | 0.00 | 74 | 1015.5 |
| 20260504042025 | 48 | 263 | 0.0 | 0.0 | 0.00 | 0.00 | 0.00 | 73 | 1015.4 |
| 20260504041025 | 48 | 263 | 0.0 | 0.0 | 0.00 | 0.00 | 0.00 | 72 | 1015.5 |
| 20260504034956 | 48 | 263 | 0.0 | 0.0 | 0.00 | 0.00 | 0.00 | 70 | 1015.6 |
| 20260504033925 | 49 | 263 | 0.0 | 0.0 | 0.00 | 0.00 | 0.00 | 69 | 1015.4 |
| 20260504032939 | 49 | 263 | 0.0 | 0.0 | 0.00 | 0.00 | 0.00 | 68 | 1015.4 |
| 20260504032855 | 49 | 263 | 0.0 | 0.0 | 0.00 | 0.00 | 0.00 | 68 | 1015.4 |
| 20260504031021 | 49 | 263 | 0.0 | 0.0 | 0.00 | 0.00 | 0.00 | 67 | 1015.3 |
| 20260504030825 | 49 | 263 | 0.0 | 0.0 | 0.00 | 0.00 | 0.00 | 67 | 1015.3 |
| 20260504025755 | 50 | 263 | 0.0 | 0.0 | 0.00 | 0.00 | 0.00 | 66 | 1015.3 |
| 20260504024921 | 50 | 263 | 0.0 | 0.0 | 0.00 | 0.00 | 0.00 | 65 | 1015.0 |
| 20260504024725 | 50 | 263 | 0.0 | 0.0 | 0.00 | 0.00 | 0.00 | 65 | 1015.1 |
| 20260504023655 | 50 | 263 | 0.0 | 0.0 | 0.00 | 0.00 | 0.00 | 65 | 1015.0 |
| 20260504022655 | 50 | 263 | 0.0 | 0.0 | 0.00 | 0.00 | 0.00 | 64 | 1015.0 |
| 20260504021625 | 51 | 263 | 0.0 | 0.0 | 0.00 | 0.00 | 0.00 | 64 | 1014.9 |
| 20260504020625 | 51 | 263 | 0.0 | 0.0 | 0.00 | 0.00 | 0.00 | 63 | 1015.0 |
| 20260504014555 | 52 | 263 | 0.0 | 0.0 | 0.00 | 0.00 | 0.00 | 59 | 1014.8 |
| 20260504013639 | 53 | 263 | 0.0 | 0.0 | 0.00 | 0.00 | 0.00 | 57 | 1014.7 |
| 20260504013525 | 53 | 263 | 0.0 | 0.0 | 0.00 | 0.00 | 0.00 | 57 | 1014.7 |
| 20260504012651 | 53 | 263 | 0.0 | 0.0 | 0.00 | 0.00 | 0.00 | 55 | 1014.7 |
| 20260504012455 | 53 | 263 | 0.0 | 0.0 | 0.00 | 0.00 | 0.00 | 55 | 1014.7 |
| 20260504011455 | 54 | 263 | 0.0 | 0.0 | 0.00 | 0.00 | 0.00 | 52 | 1014.7 |
| 20260504005455 | 56 | 263 | 0.0 | 0.0 | 0.00 | 0.00 | 0.00 | 48 | 1014.6 |
| 20260504004455 | 56 | 263 | 0.0 | 0.0 | 0.00 | 0.00 | 0.00 | 47 | 1014.5 |
| 20260504003455 | 57 | 263 | 0.0 | 0.0 | 0.00 | 0.00 | 0.00 | 45 | 1014.4 |
| 20260504002627 | 58 | 263 | 0.0 | 0.0 | 0.00 | 0.00 | 0.00 | 43 | 1014.3 |
| 20260504002425 | 58 | 263 | 0.0 | 0.0 | 0.00 | 0.00 | 0.00 | 43 | 1014.3 |
| 20260504001425 | 59 | 263 | 0.0 | 0.0 | 0.00 | 0.00 | 0.00 | 41 | 1014.3 |
| 20260503233325 | 62 | 263 | 0.0 | 0.0 | 0.00 | 0.00 | 0.00 | 35 | 1014.0 |
| 20260503225225 | 64 | 293 | 0.9 | 4.3 | 0.00 | 0.00 | 0.00 | 32 | 1013.9 |
| 20260503224225 | 65 | 268 | 0.0 | 0.0 | 0.00 | 0.00 | 0.00 | 32 | 1013.9 |
| 20260503215125 | 66 | 193 | 0.0 | 0.0 | 0.00 | 0.00 | 0.00 | 30 | 1014.0 |
| 20260503214055 | 66 | 12 | 0.9 | 2.6 | 0.00 | 0.00 | 0.00 | 30 | 1014.1 |
| 20260503212055 | 65 | 234 | 0.0 | 0.0 | 0.00 | 0.00 | 0.00 | 33 | 1014.2 |
| 20260503211054 | 65 | 254 | 0.0 | 5.2 | 0.00 | 0.00 | 0.00 | 33 | 1014.2 |
| 20260503210426 | 64 | 337 | 0.9 | 0.9 | 0.00 | 0.00 | 0.00 | 34 | 1014.1 |
| 20260503210025 | 64 | 337 | 0.9 | 0.9 | 0.00 | 0.00 | 0.00 | 34 | 1014.1 |
| 20260503205025 | 64 | 291 | 1.7 | 6.1 | 0.00 | 0.00 | 0.00 | 32 | 1014.3 |
| 20260503202925 | 64 | 231 | 0.0 | 2.6 | 0.00 | 0.00 | 0.00 | 33 | 1014.4 |
| 20260503194825 | 64 | 279 | 5.2 | 8.7 | 0.00 | 0.00 | 0.00 | 32 | 1014.9 |
| 20260503192724 | 65 | 311 | 1.7 | 5.2 | 0.00 | 0.00 | 0.00 | 33 | 1015.3 |
| 20260503190851 | 64 | 344 | 0.9 | 1.7 | 0.00 | 0.00 | 0.00 | 35 | 1015.6 |
| 20260503190625 | 64 | 344 | 0.9 | 1.7 | 0.00 | 0.00 | 0.00 | 35 | 1015.6 |
| 20260503185624 | 64 | 324 | 1.7 | 5.2 | 0.00 | 0.00 | 0.00 | 34 | 1015.8 |
| 20260503182525 | 62 | 219 | 0.0 | 0.0 | 0.00 | 0.00 | 0.00 | 36 | 1016.1 |
| 20260503180425 | 63 | 256 | 1.7 | 5.2 | 0.00 | 0.00 | 0.00 | 35 | 1016.3 |
| 20260503175425 | 63 | 272 | 1.7 | 6.1 | 0.00 | 0.00 | 0.00 | 37 | 1016.3 |
| 20260503171325 | 61 | 260 | 0.9 | 1.7 | 0.00 | 0.00 | 0.00 | 37 | 1016.7 |
| 20260503170255 | 60 | 356 | 0.9 | 4.3 | 0.00 | 0.00 | 0.00 | 38 | 1016.6 |
| 20260503160125 | 57 | 328 | 0.0 | 1.7 | 0.00 | 0.00 | 0.00 | 42 | 1017.4 |